Year,Month,Day,Hour,Minute,Value (Times are PST for temperature in C)
2012,12,10,00,00,2.60
2012,12,10,00,01,2.60
2012,12,10,00,02,2.50
2012,12,10,00,03,2.50
2012,12,10,00,04,2.50
2012,12,10,00,05,2.50
2012,12,10,00,06,2.50
2012,12,10,00,07,2.50
2012,12,10,00,08,2.50
2012,12,10,00,09,2.40
2012,12,10,00,10,2.40
2012,12,10,00,11,2.40
2012,12,10,00,12,2.40
2012,12,10,00,16,2.40
2012,12,10,00,17,2.40
2012,12,10,00,18,2.50
2012,12,10,00,19,2.50
2012,12,10,00,20,2.50
2012,12,10,00,21,2.50
2012,12,10,00,22,2.50
2012,12,10,00,23,2.50
2012,12,10,00,24,2.50
2012,12,10,00,25,2.50
2012,12,10,00,26,2.50
2012,12,10,00,27,2.60
2012,12,10,00,28,2.60
2012,12,10,00,29,2.60
2012,12,10,00,30,2.60
2012,12,10,00,31,2.60
2012,12,10,00,32,2.60
2012,12,10,00,33,2.60
2012,12,10,00,34,2.60
2012,12,10,00,35,2.60
2012,12,10,00,36,2.60
2012,12,10,00,37,2.70
2012,12,10,00,38,2.70
2012,12,10,00,39,2.70
2012,12,10,00,40,2.70
2012,12,10,00,41,2.70
2012,12,10,00,42,2.70
2012,12,10,00,43,2.70
2012,12,10,00,44,2.70
2012,12,10,00,45,2.70
2012,12,10,00,46,2.70
2012,12,10,00,47,2.70
2012,12,10,00,48,2.70
2012,12,10,00,49,2.70
2012,12,10,00,50,2.70
2012,12,10,00,51,2.70
2012,12,10,00,52,2.70
2012,12,10,00,53,2.70
2012,12,10,00,54,2.70
2012,12,10,00,55,2.70
2012,12,10,00,56,2.70
2012,12,10,00,57,2.70
2012,12,10,00,58,2.70
2012,12,10,00,59,2.70
2012,12,10,01,00,2.70
2012,12,10,01,01,2.70
2012,12,10,01,02,2.70
2012,12,10,01,03,2.70
2012,12,10,01,04,2.70
2012,12,10,01,05,2.70
2012,12,10,01,06,2.70
2012,12,10,01,07,2.70
2012,12,10,01,08,2.70
2012,12,10,01,09,2.70
2012,12,10,01,10,2.70
2012,12,10,01,11,2.70
2012,12,10,01,12,2.70
2012,12,10,01,13,2.70
2012,12,10,01,14,2.70
2012,12,10,01,15,2.70
2012,12,10,01,16,2.70
2012,12,10,01,17,2.70
2012,12,10,01,18,2.70
2012,12,10,01,19,2.70
2012,12,10,01,20,2.70
2012,12,10,01,21,2.70
2012,12,10,01,22,2.70
2012,12,10,01,23,2.70
2012,12,10,01,24,2.70
2012,12,10,01,25,2.70
2012,12,10,01,26,2.70
2012,12,10,01,27,2.80
2012,12,10,01,28,2.80
2012,12,10,01,29,2.80
2012,12,10,01,30,2.80
2012,12,10,01,31,2.80
2012,12,10,01,32,2.80
2012,12,10,01,33,2.80
2012,12,10,01,34,2.80
2012,12,10,01,35,2.80
2012,12,10,01,36,2.80
2012,12,10,01,37,2.80
2012,12,10,01,38,2.90
2012,12,10,01,39,2.90
2012,12,10,01,40,2.90
2012,12,10,01,41,2.90
2012,12,10,01,42,2.90
2012,12,10,01,43,2.90
2012,12,10,01,44,2.90
2012,12,10,01,45,2.90
2012,12,10,01,46,2.90
2012,12,10,01,47,2.90
2012,12,10,01,48,2.90
2012,12,10,01,49,2.90
2012,12,10,01,50,2.90
2012,12,10,01,51,2.90
2012,12,10,01,52,2.90
2012,12,10,01,53,2.90
2012,12,10,01,54,2.90
2012,12,10,01,55,2.90
2012,12,10,01,56,2.90
2012,12,10,01,57,2.90
2012,12,10,01,58,2.90
2012,12,10,01,59,2.90
2012,12,10,02,00,2.90
2012,12,10,02,01,2.90
2012,12,10,02,02,2.90
2012,12,10,02,03,2.90
2012,12,10,02,04,2.90
2012,12,10,02,05,2.90
2012,12,10,02,06,2.90
2012,12,10,02,07,2.90
2012,12,10,02,08,2.90
2012,12,10,02,09,2.90
2012,12,10,02,10,2.90
2012,12,10,02,11,2.90
2012,12,10,02,12,2.90
2012,12,10,02,13,2.90
2012,12,10,02,14,2.90
2012,12,10,02,15,2.90
2012,12,10,02,16,2.90
2012,12,10,02,17,2.90
2012,12,10,02,18,3.00
2012,12,10,02,19,3.10
2012,12,10,02,20,3.10
2012,12,10,02,21,3.10
2012,12,10,02,22,3.10
2012,12,10,02,23,3.10
2012,12,10,02,24,3.10
2012,12,10,02,25,3.10
2012,12,10,02,26,3.10
2012,12,10,02,27,3.10
2012,12,10,02,28,3.10
2012,12,10,02,29,3.10
2012,12,10,02,30,3.10
2012,12,10,02,31,3.10
2012,12,10,02,32,3.10
2012,12,10,02,33,3.10
2012,12,10,02,34,3.10
2012,12,10,02,35,3.10
2012,12,10,02,36,3.10
2012,12,10,02,37,3.10
2012,12,10,02,38,3.10
2012,12,10,02,39,3.10
2012,12,10,02,40,3.10
2012,12,10,02,41,3.10
2012,12,10,02,42,3.10
2012,12,10,02,43,3.10
2012,12,10,02,44,3.10
2012,12,10,02,45,3.10
2012,12,10,02,46,3.10
2012,12,10,02,47,3.10
2012,12,10,02,48,3.10
2012,12,10,02,49,3.10
2012,12,10,02,50,3.10
2012,12,10,02,51,3.10
2012,12,10,02,52,3.10
2012,12,10,02,53,3.10
2012,12,10,02,54,3.10
2012,12,10,02,55,3.10
2012,12,10,02,56,3.10
2012,12,10,02,57,3.10
2012,12,10,02,58,3.10
2012,12,10,02,59,3.10
2012,12,10,03,00,3.20
2012,12,10,03,01,3.10
2012,12,10,03,02,3.10
2012,12,10,03,03,3.10
2012,12,10,03,04,3.10
2012,12,10,03,05,3.10
2012,12,10,03,06,3.10
2012,12,10,03,07,3.10
2012,12,10,03,08,3.10
2012,12,10,03,09,3.10
2012,12,10,03,10,3.10
2012,12,10,03,11,3.10
2012,12,10,03,12,3.10
2012,12,10,03,13,3.10
2012,12,10,03,14,3.10
2012,12,10,03,15,3.10
2012,12,10,03,16,3.10
2012,12,10,03,17,3.20
2012,12,10,03,18,3.20
2012,12,10,03,19,3.20
2012,12,10,03,20,3.20
2012,12,10,03,21,3.20
2012,12,10,03,22,3.20
2012,12,10,03,23,3.20
2012,12,10,03,24,3.20
2012,12,10,03,25,3.20
2012,12,10,03,26,3.20
2012,12,10,03,27,3.20
2012,12,10,03,28,3.20
2012,12,10,03,29,3.20
2012,12,10,03,30,3.20
2012,12,10,03,31,3.20
2012,12,10,03,32,3.20
2012,12,10,03,33,3.20
2012,12,10,03,34,3.20
2012,12,10,03,35,3.20
2012,12,10,03,36,3.20
2012,12,10,03,37,3.20
2012,12,10,03,38,3.20
2012,12,10,03,39,3.20
2012,12,10,03,40,3.20
2012,12,10,03,41,3.20
2012,12,10,03,42,3.20
2012,12,10,03,43,3.20
2012,12,10,03,44,3.10
2012,12,10,03,45,3.20
2012,12,10,03,46,3.20
2012,12,10,03,47,3.20
2012,12,10,03,48,3.20
2012,12,10,03,49,3.20
2012,12,10,03,50,3.20
2012,12,10,03,51,3.20
2012,12,10,03,52,3.20
2012,12,10,03,53,3.20
2012,12,10,03,54,3.20
2012,12,10,03,55,3.20
2012,12,10,03,56,3.20
2012,12,10,03,57,3.20
2012,12,10,03,58,3.20
2012,12,10,03,59,3.20
2012,12,10,04,00,3.20
2012,12,10,04,01,3.20
2012,12,10,04,02,3.20
2012,12,10,04,03,3.20
2012,12,10,04,04,3.20
2012,12,10,04,05,3.20
2012,12,10,04,06,3.20
2012,12,10,04,07,3.20
2012,12,10,04,08,3.20
2012,12,10,04,09,3.20
2012,12,10,04,10,3.20
2012,12,10,04,11,3.20
2012,12,10,04,12,3.20
2012,12,10,04,13,3.20
2012,12,10,04,14,3.20
2012,12,10,04,15,3.20
2012,12,10,04,16,3.30
2012,12,10,04,17,3.30
2012,12,10,04,18,3.30
2012,12,10,04,19,3.30
2012,12,10,04,20,3.30
2012,12,10,04,21,3.30
2012,12,10,04,22,3.30
2012,12,10,04,23,3.30
2012,12,10,04,24,3.30
2012,12,10,04,25,3.30
2012,12,10,04,26,3.30
2012,12,10,04,27,3.30
2012,12,10,04,28,3.30
2012,12,10,04,29,3.30
2012,12,10,04,30,3.30
2012,12,10,04,31,3.30
2012,12,10,04,32,3.30
2012,12,10,04,33,3.30
2012,12,10,04,34,3.30
2012,12,10,04,35,3.30
2012,12,10,04,36,3.30
2012,12,10,04,37,3.30
2012,12,10,04,38,3.30
2012,12,10,04,39,3.30
2012,12,10,04,40,3.30
2012,12,10,04,41,3.30
2012,12,10,04,42,3.30
2012,12,10,04,43,3.30
2012,12,10,04,44,3.30
2012,12,10,04,45,3.30
2012,12,10,04,46,3.30
2012,12,10,04,47,3.30
2012,12,10,04,48,3.30
2012,12,10,04,49,3.30
2012,12,10,04,50,3.30
2012,12,10,04,51,3.30
2012,12,10,04,52,3.30
2012,12,10,04,53,3.30
2012,12,10,04,54,3.30
2012,12,10,04,55,3.30
2012,12,10,04,56,3.30
2012,12,10,04,57,3.30
2012,12,10,04,58,3.30
2012,12,10,04,59,3.30
2012,12,10,05,00,3.30
2012,12,10,05,01,3.30
2012,12,10,05,02,3.30
2012,12,10,05,03,3.30
2012,12,10,05,04,3.30
2012,12,10,05,05,3.30
2012,12,10,05,06,3.30
2012,12,10,05,07,3.30
2012,12,10,05,08,3.30
2012,12,10,05,09,3.30
2012,12,10,05,10,3.30
2012,12,10,05,11,3.30
2012,12,10,05,12,3.30
2012,12,10,05,13,3.30
2012,12,10,05,14,3.30
2012,12,10,05,15,3.30
2012,12,10,05,16,3.30
2012,12,10,05,17,3.30
2012,12,10,05,18,3.30
2012,12,10,05,19,3.30
2012,12,10,05,20,3.30
2012,12,10,05,21,3.30
2012,12,10,05,22,3.30
2012,12,10,05,23,3.30
2012,12,10,05,24,3.30
2012,12,10,05,25,3.30
2012,12,10,05,26,3.30
2012,12,10,05,27,3.40
2012,12,10,05,28,3.40
2012,12,10,05,29,3.40
2012,12,10,05,30,3.40
2012,12,10,05,31,3.40
2012,12,10,05,32,3.40
2012,12,10,05,33,3.40
2012,12,10,05,34,3.40
2012,12,10,05,35,3.40
2012,12,10,05,36,3.40
2012,12,10,05,37,3.40
2012,12,10,05,38,3.40
2012,12,10,05,39,3.40
2012,12,10,05,40,3.40
2012,12,10,05,41,3.40
2012,12,10,05,42,3.40
2012,12,10,05,43,3.40
2012,12,10,05,44,3.40
2012,12,10,05,45,3.40
2012,12,10,05,46,3.50
2012,12,10,05,47,3.50
2012,12,10,05,48,3.50
2012,12,10,05,49,3.50
2012,12,10,05,50,3.50
2012,12,10,05,51,3.50
2012,12,10,05,52,3.50
2012,12,10,05,53,3.50
2012,12,10,05,54,3.50
2012,12,10,05,55,3.50
2012,12,10,05,56,3.50
2012,12,10,05,57,3.50
2012,12,10,05,58,3.50
2012,12,10,05,59,3.60
2012,12,10,06,00,3.60
2012,12,10,06,01,3.60
2012,12,10,06,02,3.60
2012,12,10,06,03,3.60
2012,12,10,06,04,3.60
2012,12,10,06,05,3.60
2012,12,10,06,06,3.60
2012,12,10,06,07,3.60
2012,12,10,06,08,3.60
2012,12,10,06,09,3.60
2012,12,10,06,10,3.60
2012,12,10,06,11,3.70
2012,12,10,06,12,3.70
2012,12,10,06,13,3.70
2012,12,10,06,14,3.70
2012,12,10,06,15,3.70
2012,12,10,06,16,3.70
2012,12,10,06,17,3.70
2012,12,10,06,18,3.70
2012,12,10,06,19,3.70
2012,12,10,06,20,3.70
2012,12,10,06,21,3.70
2012,12,10,06,22,3.70
2012,12,10,06,23,3.70
2012,12,10,06,24,3.80
2012,12,10,06,25,3.80
2012,12,10,06,26,3.80
2012,12,10,06,27,3.80
2012,12,10,06,28,3.80
2012,12,10,06,29,3.80
2012,12,10,06,30,3.80
2012,12,10,06,31,3.80
2012,12,10,06,32,3.80
2012,12,10,06,33,3.80
2012,12,10,06,34,3.80
2012,12,10,06,35,3.80
2012,12,10,06,36,3.80
2012,12,10,06,37,3.80
2012,12,10,06,38,3.80
2012,12,10,06,39,3.80
2012,12,10,06,40,3.80
2012,12,10,06,41,3.80
2012,12,10,06,42,3.80
2012,12,10,06,43,3.80
2012,12,10,06,44,3.80
2012,12,10,06,45,3.80
2012,12,10,06,46,3.80
2012,12,10,06,47,3.90
2012,12,10,06,48,3.90
2012,12,10,06,49,3.90
2012,12,10,06,50,3.90
2012,12,10,06,51,3.90
2012,12,10,06,52,3.90
2012,12,10,06,53,3.90
2012,12,10,06,54,3.90
2012,12,10,06,55,3.90
2012,12,10,06,56,3.90
2012,12,10,06,57,3.90
2012,12,10,06,58,3.90
2012,12,10,06,59,3.90
2012,12,10,07,00,3.90
2012,12,10,07,01,3.90
2012,12,10,07,02,3.90
2012,12,10,07,03,3.90
2012,12,10,07,04,3.90
2012,12,10,07,05,3.90
2012,12,10,07,06,3.90
2012,12,10,07,07,3.90
2012,12,10,07,08,3.90
